TimeCDT,TemperatureF,Dew PointF,Humidity,Sea Level PressureIn,VisibilityMPH,Wind Direction,Wind SpeedMPH,Gust SpeedMPH,PrecipitationIn,Events,Conditions,WindDirDegrees,DateUTC
12:15 AM,55.6,54.9,97,30.05,4.0,Calm,Calm,-,N/A,,Overcast,0,2012-10-04 05:15:00
12:35 AM,55.6,55.0,98,30.05,4.0,Calm,Calm,-,N/A,,Overcast,0,2012-10-04 05:35:00
12:55 AM,55.6,55.2,99,30.06,4.0,SSW,3.5,-,N/A,,Overcast,200,2012-10-04 05:55:00
1:15 AM,55.9,55.4,98,30.06,5.0,SSW,4.6,-,N/A,,Scattered Clouds,200,2012-10-04 06:15:00
1:35 AM,56.3,55.4,97,30.06,7.0,SSW,4.6,-,N/A,,Mostly Cloudy,200,2012-10-04 06:35:00
1:55 AM,56.3,54.9,95,30.06,7.0,SW,4.6,-,N/A,,Overcast,220,2012-10-04 06:55:00
2:15 AM,55.4,54.1,96,30.07,5.0,SSW,4.6,-,N/A,,Scattered Clouds,210,2012-10-04 07:15:00
2:35 AM,55.0,54.0,96,30.07,5.0,SW,4.6,-,N/A,,Mostly Cloudy,220,2012-10-04 07:35:00
2:55 AM,54.9,54.0,97,30.07,5.0,SW,5.8,-,N/A,,Mostly Cloudy,230,2012-10-04 07:55:00
3:15 AM,55.4,54.3,96,30.07,7.0,SW,4.6,-,N/A,,Mostly Cloudy,230,2012-10-04 08:15:00
3:35 AM,56.5,53.8,91,30.08,10.0,WSW,5.8,-,N/A,,Overcast,250,2012-10-04 08:35:00
3:55 AM,56.7,53.6,89,30.08,10.0,WSW,8.1,-,N/A,,Overcast,250,2012-10-04 08:55:00
4:15 AM,56.3,53.6,91,30.08,10.0,WSW,4.6,-,N/A,,Overcast,240,2012-10-04 09:15:00
4:35 AM,55.9,53.6,92,30.08,10.0,SW,3.5,-,N/A,,Mostly Cloudy,220,2012-10-04 09:35:00
4:55 AM,55.4,53.1,92,30.08,10.0,SSW,3.5,-,N/A,,Scattered Clouds,200,2012-10-04 09:55:00
5:15 AM,55.0,53.1,93,30.08,10.0,Calm,Calm,-,N/A,,Scattered Clouds,0,2012-10-04 10:15:00
5:35 AM,54.5,52.9,94,30.09,10.0,SSW,4.6,-,N/A,,Mostly Cloudy,210,2012-10-04 10:35:00
5:55 AM,54.0,52.7,95,30.09,7.0,South,3.5,-,N/A,,Mostly Cloudy,190,2012-10-04 10:55:00
6:15 AM,53.6,52.5,96,30.08,7.0,South,3.5,-,N/A,,Mostly Cloudy,180,2012-10-04 11:15:00
6:35 AM,53.8,52.7,96,30.08,7.0,Calm,Calm,-,N/A,,Overcast,0,2012-10-04 11:35:00
6:55 AM,53.1,52.0,96,30.08,7.0,South,3.5,-,N/A,,Scattered Clouds,190,2012-10-04 11:55:00
7:15 AM,52.7,51.8,97,30.09,7.0,South,3.5,-,N/A,,Clear,190,2012-10-04 12:15:00
7:35 AM,53.6,52.3,95,30.09,7.0,SSW,3.5,-,N/A,,Mostly Cloudy,200,2012-10-04 12:35:00
7:55 AM,53.8,52.2,94,30.09,7.0,SSW,3.5,-,N/A,,Scattered Clouds,210,2012-10-04 12:55:00
8:15 AM,55.4,52.9,91,30.10,10.0,SW,6.9,-,N/A,,Clear,220,2012-10-04 13:15:00
8:35 AM,57.2,53.6,88,30.10,10.0,SW,8.1,-,N/A,,Clear,220,2012-10-04 13:35:00
8:55 AM,58.8,54.1,84,30.11,10.0,SSW,8.1,-,N/A,,Clear,210,2012-10-04 13:55:00
9:15 AM,60.8,55.2,82,30.11,10.0,SW,8.1,-,N/A,,Clear,220,2012-10-04 14:15:00
9:35 AM,62.6,55.8,78,30.11,10.0,SSW,9.2,-,N/A,,Clear,210,2012-10-04 14:35:00
9:55 AM,63.7,55.8,75,30.11,10.0,SW,11.5,16.1,N/A,,Clear,220,2012-10-04 14:55:00
10:15 AM,65.3,55.4,70,30.10,10.0,SW,11.5,-,N/A,,Clear,220,2012-10-04 15:15:00
10:35 AM,67.5,55.2,65,30.09,10.0,SW,10.4,-,N/A,,Clear,220,2012-10-04 15:35:00
10:55 AM,68.5,54.9,62,30.08,10.0,SSW,8.1,-,N/A,,Clear,210,2012-10-04 15:55:00
11:15 AM,70.0,54.9,59,30.08,10.0,SW,10.4,17.3,N/A,,Clear,220,2012-10-04 16:15:00
11:35 AM,72.0,54.5,54,30.08,10.0,SSW,10.4,-,N/A,,Clear,210,2012-10-04 16:35:00
11:55 AM,73.4,53.2,49,30.08,10.0,SW,12.7,18.4,N/A,,Clear,230,2012-10-04 16:55:00
12:15 PM,74.3,52.0,46,30.07,10.0,SSW,11.5,17.3,N/A,,Clear,200,2012-10-04 17:15:00
12:35 PM,75.4,51.1,42,30.07,10.0,SW,16.1,20.7,N/A,,Clear,220,2012-10-04 17:35:00
12:55 PM,76.3,50.5,40,30.05,10.0,SW,12.7,20.7,N/A,,Clear,220,2012-10-04 17:55:00
1:35 PM,77.5,47.7,35,30.04,10.0,WSW,15.0,26.5,N/A,,Clear,240,2012-10-04 18:35:00
1:55 PM,77.9,48.4,35,30.03,10.0,WSW,19.6,26.5,N/A,,Scattered Clouds,240,2012-10-04 18:55:00
2:15 PM,77.4,49.3,37,30.03,10.0,SW,16.1,26.5,N/A,,Scattered Clouds,220,2012-10-04 19:15:00
2:35 PM,78.3,48.4,35,30.03,10.0,SW,16.1,27.6,N/A,,Clear,230,2012-10-04 19:35:00
2:55 PM,78.6,48.4,34,30.02,10.0,SW,17.3,24.2,N/A,,Scattered Clouds,220,2012-10-04 19:55:00
3:15 PM,79.2,47.7,33,30.01,10.0,SSW,19.6,27.6,N/A,,Scattered Clouds,210,2012-10-04 20:15:00
3:35 PM,79.5,48.7,34,30.01,10.0,WSW,17.3,31.1,N/A,,Scattered Clouds,240,2012-10-04 20:35:00
3:55 PM,79.3,49.1,35,30.01,10.0,SW,18.4,29.9,N/A,,Clear,230,2012-10-04 20:55:00
4:15 PM,78.1,49.6,37,30.01,10.0,SW,16.1,24.2,N/A,,Scattered Clouds,230,2012-10-04 21:15:00
4:35 PM,77.9,50.0,38,30.00,10.0,SW,17.3,24.2,N/A,,Scattered Clouds,230,2012-10-04 21:35:00
4:55 PM,77.4,50.4,39,30.00,10.0,SW,11.5,21.9,N/A,,Scattered Clouds,230,2012-10-04 21:55:00
5:15 PM,76.3,51.4,42,30.00,10.0,SW,11.5,25.3,N/A,,Mostly Cloudy,230,2012-10-04 22:15:00
5:35 PM,74.5,52.7,46,30.01,10.0,WSW,10.4,-,N/A,,Mostly Cloudy,240,2012-10-04 22:35:00
5:55 PM,72.7,55.2,54,30.02,10.0,West,16.1,21.9,N/A,,Mostly Cloudy,270,2012-10-04 22:55:00
6:15 PM,70.9,55.4,58,30.03,10.0,West,12.7,-,N/A,,Overcast,260,2012-10-04 23:15:00
6:35 PM,70.3,55.4,59,30.04,10.0,West,13.8,20.7,N/A,,Overcast,270,2012-10-04 23:35:00
6:55 PM,68.2,53.4,59,30.07,10.0,West,24.2,33.4,N/A,,Overcast,280,2012-10-04 23:55:00
7:15 PM,64.0,53.4,68,30.05,10.0,West,10.4,-,N/A,Rain,Rain,280,2012-10-05 00:15:00
7:35 PM,61.0,55.4,82,30.05,7.0,West,11.5,18.4,0.04,Rain,Rain,270,2012-10-05 00:35:00
7:55 PM,59.5,55.4,86,30.05,10.0,WNW,3.5,-,0.04,Rain,Light Rain,290,2012-10-05 00:55:00
8:15 PM,59.5,55.8,87,30.08,10.0,West,15.0,21.9,N/A,Rain,Light Rain,280,2012-10-05 01:15:00
8:35 PM,58.3,55.8,91,30.08,7.0,WNW,8.1,20.7,N/A,,Overcast,290,2012-10-05 01:35:00
8:55 PM,57.0,54.9,92,30.09,7.0,West,10.4,-,N/A,,Overcast,270,2012-10-05 01:55:00
9:15 PM,56.7,54.7,93,30.08,7.0,West,6.9,-,N/A,,Mostly Cloudy,270,2012-10-05 02:15:00
9:35 PM,56.3,53.1,89,30.09,10.0,West,12.7,16.1,N/A,,Overcast,270,2012-10-05 02:35:00
9:55 PM,55.4,51.1,85,30.09,10.0,West,10.4,-,N/A,,Overcast,270,2012-10-05 02:55:00
10:15 PM,54.9,50.9,86,30.09,10.0,West,5.8,-,N/A,,Overcast,280,2012-10-05 03:15:00
10:35 PM,54.7,50.7,86,30.10,10.0,West,6.9,-,N/A,,Overcast,270,2012-10-05 03:35:00
10:55 PM,54.3,49.8,85,30.11,10.0,WSW,5.8,-,N/A,,Overcast,250,2012-10-05 03:55:00
11:15 PM,54.0,48.7,82,30.11,10.0,WSW,5.8,-,N/A,,Overcast,250,2012-10-05 04:15:00
11:35 PM,53.6,48.2,82,30.11,10.0,West,4.6,-,N/A,,Overcast,260,2012-10-05 04:35:00
11:55 PM,53.1,48.2,84,30.12,10.0,West,6.9,-,N/A,,Drizzle,270,2012-10-05 04:55:00